Project,Study,Ord_Occ,Event_Num,Cast_ID,Date_Time_UTC,Date_Time_PST,Lat_Dec,Lon_Dec,Sta_ID,Line,Sta,Depth,Pressure,PrQ,Temp1,Temp1Q,Temp2,Temp2Q,TempAve,Salt1,Salt1Q,Salt1_Corr,Salt2,Salt2Q,Salt2_Corr,SaltAve_Corr,Ox1,Ox1Q,Ox1_CruiseCorr,Ox1_StaCorr,Ox2,Ox2Q,Ox2_CruiseCorr,Ox2_StaCorr,OxAve_StaCorr,Ox1uM,Ox1uM_CruiseCorr,Ox1uM_StaCorr,Ox2uM,Ox2uM_CruiseCorr,Ox2uM_StaCorr,OxAveuM_StaCorr,FluorV,FluorQ,EstChl_CruiseCorr,EstChl_StaCorr,ISUSV,ISUSQ,EstNO3_CruiseCorr,EstNO3_StaCorr,SigThetaTS1,SigThetaTS1Q,SigThetaTS2,SigThetaTS2Q,BAT,XMiss,TransQ,pH,pHQ,SPAR,SPARQ,PAR,PARQ,PoT1,PoT2,DynHt,SVA,OxSat1,OxSat2,BTL_Depth,BTL_Temp,SaltB,OxB,OxBuM,Chl-a,Phaeo,NO3,NO2,NH4,PO4,SIL
CalCOFI,2007SR,014,15,2007_014d,15-Jul-2020 18:46:04,15-Jul-2020 10:46:04,30.84654,-121.58972,093.3 090.0,093.3,090.0,1.000,1.007,,19.3743,,19.3755,,19.3749,33.4626,,33.4628,33.4627,,33.4643,33.4636,5.1598,,5.3738,5.3317,3.6994,,4.8904,3.9093,4.6205,225.091,234.4844,233.2049,161.380,384.9956,168.0698,200.6374,0.0306,,,0.0765,0.3041,,0.0000,0.539,23.7514,,23.7511,,0.6692,84.5951,,8.144,,1.7331E+03,,6.0980E+01,,19.3741,19.3753,-0.0001,,97.671,70.027,,,,,,,,,,,,
CalCOFI,2007SR,014,15,2007_014d,15-Jul-2020 18:46:07,15-Jul-2020 10:46:07,30.84654,-121.58972,093.3 090.0,093.3,090.0,2.000,2.014,,19.3758,,19.3765,,19.3762,33.4627,,33.4629,33.4626,,33.4642,33.4636,5.1582,,5.3721,5.3301,3.7055,,4.9049,3.9226,4.6264,225.022,234.4124,233.1339,161.650,384.8269,168.6817,200.9078,0.0307,,,0.0769,0.3064,,0.0000,0.602,23.7510,,23.7508,,0.6656,84.6706,,8.144,,1.7396E+03,,4.7840E+01,,19.3754,19.3761,0.0042,,97.644,70.146,2,19.431,33.4519,5.379,234.78,0.086,0.011,0.23,0.00,0.60,0.29,1.49
CalCOFI,2007SR,014,15,2007_014d,15-Jul-2020 18:46:13,15-Jul-2020 10:46:13,30.84654,-121.58972,093.3 090.0,093.3,090.0,3.000,3.021,,19.3756,,19.3768,,19.3762,33.4627,,33.4629,33.4627,,33.4643,33.4636,5.1574,,5.3713,5.3293,3.7157,,4.9293,3.9447,4.6370,224.985,234.3737,233.0958,162.093,384.7364,169.6856,201.3907,0.0312,,,0.0791,0.2612,,0.0000,0.000,23.7512,,23.7509,,0.6656,84.6709,,8.144,,1.7510E+03,,4.3137E+01,,19.3750,19.3762,0.0111,,97.628,70.339,,,,,,,,,,,,
CalCOFI,2007SR,014,15,2007_014d,15-Jul-2020 18:46:18,15-Jul-2020 10:46:18,30.84654,-121.58972,093.3 090.0,093.3,090.0,4.000,4.028,,19.3739,,19.3751,,19.3745,33.4627,,33.4629,33.4629,,33.4645,33.4637,5.1616,,5.3757,5.3336,3.7242,,4.9496,3.9631,4.6484,225.171,234.5679,233.2872,162.464,385.1913,170.5264,201.9068,0.0309,,,0.0778,0.2736,,0.0000,0.000,23.7516,,23.7515,,0.6674,84.6316,,8.144,,1.7579E+03,,3.7272E+01,,19.3732,19.3743,0.0169,,97.705,70.497,,,,,,,,,,,,
CalCOFI,2007SR,014,15,2007_014d,15-Jul-2020 18:46:21,15-Jul-2020 10:46:21,30.84654,-121.58974,093.3 090.0,093.3,090.0,5.000,5.035,,19.3784,,19.3778,,19.3781,33.4626,,33.4628,33.4626,,33.4642,33.4635,5.1630,,5.3771,5.3350,3.7269,,4.9560,3.9689,4.6520,225.231,234.6305,233.3489,162.582,385.3381,170.7938,202.0714,0.0305,,,0.0761,0.2756,,0.0000,0.000,23.7505,,23.7506,,0.6655,84.6725,,8.144,,1.7601E+03,,3.3845E+01,,19.3775,19.3769,0.0208,,97.739,70.552,,,,,,,,,,,,
CalCOFI,2007SR,014,15,2007_014d,15-Jul-2020 18:46:22,15-Jul-2020 10:46:22,30.84654,-121.58973,093.3 090.0,093.3,090.0,6.000,6.042,,19.3689,,19.3678,,19.3684,33.4629,,33.4631,33.4631,,33.4647,33.4639,5.1645,,5.3787,5.3365,3.7302,,4.9639,3.9761,4.6563,225.296,234.6984,233.4158,162.726,385.4970,171.1201,202.2680,0.0309,,,0.0778,0.2782,,0.0000,0.000,23.7532,,23.7536,,0.6662,84.6564,,8.144,,1.7663E+03,,2.9117E+01,,19.3678,19.3667,0.0250,,97.750,70.602,,,,,,,,,,,,
CalCOFI,2007SR,014,15,2007_014d,15-Jul-2020 18:46:24,15-Jul-2020 10:46:24,30.84656,-121.58972,093.3 090.0,093.3,090.0,7.000,7.049,,19.3680,,19.3677,,19.3679,33.4629,,33.4631,33.4632,,33.4648,33.4640,5.1627,,5.3768,5.3347,3.7338,,4.9725,3.9839,4.6593,225.216,234.6149,233.3335,162.882,385.3014,171.4736,202.4036,0.0304,,,0.0757,0.2805,,0.0000,0.000,23.7535,,23.7537,,0.6669,84.6432,,8.144,,1.7710E+03,,2.7016E+01,,19.3668,19.3664,0.0292,,97.714,70.669,,,,,,,,,,,,
CalCOFI,2007SR,014,15,2007_014d,15-Jul-2020 18:46:27,15-Jul-2020 10:46:27,30.84654,-121.58973,093.3 090.0,093.3,090.0,8.000,8.055,,19.3660,,19.3646,,19.3653,33.4631,,33.4633,33.4635,,33.4651,33.4642,5.1623,,5.3764,5.3343,3.7365,,4.9789,3.9897,4.6620,225.197,234.5950,233.3139,162.999,385.2549,171.7388,202.5264,0.0315,,,0.0803,0.2864,,0.0000,0.060,23.7541,,23.7548,,0.6675,84.6309,,8.144,,1.7753E+03,,2.4967E+01,,19.3645,19.3631,0.0333,,97.702,70.716,,,,,,,,,,,,
CalCOFI,2007SR,014,15,2007_014d,15-Jul-2020 18:46:29,15-Jul-2020 10:46:29,30.84654,-121.58974,093.3 090.0,093.3,090.0,9.000,9.063,,19.3660,,19.3658,,19.3659,33.4635,,33.4637,33.4640,,33.4656,33.4647,5.1627,,5.3768,5.3347,3.7385,,4.9837,3.9940,4.6644,225.215,234.6138,233.3324,163.088,385.2989,171.9405,202.6365,0.0308,,,0.0774,0.2892,,0.0000,0.136,23.7545,,23.7549,,0.6670,84.6419,,8.144,,1.7765E+03,,2.2906E+01,,19.3644,19.3642,0.0375,,97.711,70.757,,,,,,,,,,,,
CalCOFI,2007SR,014,15,2007_014d,15-Jul-2020 18:46:30,15-Jul-2020 10:46:30,30.84654,-121.58974,093.3 090.0,093.3,090.0,10.000,10.069,,19.3657,,19.3660,,19.3659,33.4632,,33.4634,33.4634,,33.4650,33.4642,5.1618,,5.3759,5.3338,3.7433,,4.9952,4.0044,4.6691,225.178,234.5752,233.2944,163.295,385.2084,172.4096,202.8520,0.0320,,,0.0824,0.2905,,0.0000,0.171,23.7544,,23.7545,,0.6666,84.6493,,8.144,,1.7802E+03,,2.2183E+01,,19.3639,19.3642,0.0416,,97.694,70.846,10,19.369,33.4569,5.384,234.99,0.099,0.022,0.07,0.00,0.13,0.26,1.41
CalCOFI,2007SR,014,15,2007_014d,15-Jul-2020 18:46:32,15-Jul-2020 10:46:32,30.84656,-121.58974,093.3 090.0,093.3,090.0,11.000,11.076,,19.3649,,19.3652,,19.3651,33.4634,,33.4636,33.4635,,33.4651,33.4644,5.1656,,5.3798,5.3376,3.7436,,4.9959,4.0051,4.6714,225.342,234.7464,233.4631,163.311,385.6095,172.4458,202.9545,0.0322,,,0.0833,0.2927,,0.0000,0.231,23.7548,,23.7548,,0.6665,84.6506,,8.144,,1.7914E+03,,1.9960E+01,,19.3629,19.3632,0.0458,,97.764,70.852,,,,,,,,,,,,
CalCOFI,2007SR,014,15,2007_014d,15-Jul-2020 18:46:35,15-Jul-2020 10:46:35,30.84654,-121.58974,093.3 090.0,093.3,090.0,12.000,12.083,,19.3638,,19.3634,,19.3636,33.4634,,33.4636,33.4637,,33.4653,33.4645,5.1664,,5.3807,5.3385,3.7464,,5.0026,4.0112,4.6749,225.380,234.7861,233.5022,163.430,385.7025,172.7155,203.1089,0.0321,,,0.0829,0.2936,,0.0000,0.255,23.7551,,23.7554,,0.6678,84.6258,,8.144,,1.7945E+03,,1.8811E+01,,19.3616,19.3612,0.0500,,97.778,70.902,,,,,,,,,,,,
CalCOFI,2007SR,014,15,2007_014d,15-Jul-2020 18:46:37,15-Jul-2020 10:46:37,30.84655,-121.58974,093.3 090.0,093.3,090.0,13.000,13.090,,19.3628,,19.3627,,19.3628,33.4635,,33.4637,33.4638,,33.4654,33.4646,5.1674,,5.3817,5.3395,3.7480,,5.0064,4.0146,4.6771,225.422,234.8299,233.5454,163.502,385.8052,172.8787,203.2121,0.0326,,,0.0850,0.2923,,0.0000,0.220,23.7555,,23.7558,,0.6677,84.6276,,8.144,,1.7986E+03,,1.7891E+01,,19.3604,19.3604,0.0542,,97.794,70.932,,,,,,,,,,,,
CalCOFI,2007SR,014,15,2007_014d,15-Jul-2020 18:46:39,15-Jul-2020 10:46:39,30.84656,-121.58974,093.3 090.0,093.3,090.0,14.000,14.097,,19.3618,,19.3623,,19.3621,33.4640,,33.4642,33.4642,,33.4658,33.4650,5.1631,,5.3772,5.3351,3.7510,,5.0136,4.0211,4.6781,225.233,234.6326,233.3510,163.631,385.3429,173.1710,203.2610,0.0329,,,0.0862,0.2903,,0.0000,0.166,23.7562,,23.7562,,0.6690,84.6001,,8.144,,1.8032E+03,,1.6664E+01,,19.3593,19.3598,0.0583,,97.711,70.987,,,,,,,,,,,,
CalCOFI,2007SR,014,15,2007_014d,15-Jul-2020 18:46:40,15-Jul-2020 10:46:40,30.84656,-121.58974,093.3 090.0,093.3,090.0,15.000,15.104,,19.3610,,19.3610,,19.3610,33.4642,,33.4644,33.4646,,33.4662,33.4653,5.1656,,5.3798,5.3376,3.7518,,5.0155,4.0229,4.6803,225.341,234.7454,233.4621,163.666,385.6071,173.2503,203.3562,0.0324,,,0.0841,0.2882,,0.0000,0.109,23.7566,,23.7569,,0.6677,84.6262,,8.144,,1.8057E+03,,1.5957E+01,,19.3583,19.3583,0.0625,,97.757,71.002,,,,,,,,,,,,
CalCOFI,2007SR,014,15,2007_014d,15-Jul-2020 18:46:44,15-Jul-2020 10:46:44,30.84654,-121.58974,093.3 090.0,093.3,090.0,16.000,16.111,,19.3611,,19.3613,,19.3612,33.4644,,33.4646,33.4649,,33.4665,33.4656,5.1703,,5.3847,5.3424,3.7530,,5.0183,4.0255,4.6840,225.546,234.9594,233.6730,163.718,386.1085,173.3682,203.5206,0.0332,,,0.0875,0.2851,,0.0000,0.025,23.7567,,23.7571,,0.6692,84.5950,,8.144,,1.8203E+03,,1.5255E+01,,19.3582,19.3585,0.0667,,97.846,71.025,,,,,,,,,,,,
CalCOFI,2007SR,014,15,2007_014d,15-Jul-2020 18:46:45,15-Jul-2020 10:46:45,30.84655,-121.58974,093.3 090.0,093.3,090.0,17.000,17.118,,19.3519,,19.3504,,19.3512,33.4684,,33.4686,33.4696,,33.4712,33.4699,5.1775,,5.3923,5.3498,3.7583,,5.0310,4.0369,4.6934,225.862,235.2892,233.9981,163.951,386.8814,173.8962,203.9472,0.0334,,,0.0883,0.2845,,0.0000,0.008,23.7622,,23.7635,,0.6726,84.5215,,8.144,,1.8243E+03,,1.4475E+01,,19.3489,19.3474,0.0708,,97.970,71.113,,,,,,,,,,,,
CalCOFI,2007SR,014,15,2007_014d,15-Jul-2020 18:46:46,15-Jul-2020 10:46:46,30.84656,-121.58974,093.3 090.0,093.3,090.0,18.000,18.125,,19.3430,,19.3418,,19.3424,33.4726,,33.4728,33.4735,,33.4751,33.4740,5.1772,,5.3920,5.3494,3.7582,,5.0308,4.0367,4.6931,225.844,235.2705,233.9796,163.946,386.8374,173.8849,203.9323,0.0334,,,0.0883,0.2837,,0.0000,0.000,23.7678,,23.7688,,0.6740,84.4929,,8.144,,1.8240E+03,,1.3777E+01,,19.3398,19.3386,0.0750,,97.948,71.102,,,,,,,,,,,,
CalCOFI,2007SR,014,15,2007_014d,15-Jul-2020 18:46:49,15-Jul-2020 10:46:49,30.84656,-121.58973,093.3 090.0,093.3,090.0,19.000,19.132,,19.3411,,19.3409,,19.3410,33.4740,,33.4742,33.4747,,33.4763,33.4753,5.1762,,5.3909,5.3484,3.7602,,5.0355,4.0411,4.6948,225.802,235.2266,233.9364,164.031,386.7346,174.0775,204.0070,0.0340,,,0.0908,0.2807,,0.0000,0.000,23.7694,,23.7700,,0.6731,84.5114,,8.144,,1.8275E+03,,1.2996E+01,,19.3377,19.3375,0.0794,,97.927,71.138,,,,,,,,,,,,
CalCOFI,2007SR,014,15,2007_014d,15-Jul-2020 18:46:52,15-Jul-2020 10:46:52,30.84654,-121.58974,093.3 090.0,093.3,090.0,20.000,20.139,,19.3402,,19.3417,,19.3410,33.4753,,33.4755,33.4750,,33.4766,33.4761,5.1810,,5.3959,5.3533,3.7625,,5.0410,4.0460,4.6997,226.009,235.4427,234.1494,164.131,387.2409,174.3041,204.2268,0.0339,,,0.0904,0.2768,,0.0000,0.000,23.7706,,23.7700,,0.6745,84.4825,,8.144,,1.8351E+03,,1.2739E+01,,19.3366,19.3381,0.0837,,98.017,71.183,,,,,,,,,,,,
CalCOFI,2007SR,014,15,2007_014d,15-Jul-2020 18:46:53,15-Jul-2020 10:46:53,30.84655,-121.58974,093.3 090.0,093.3,090.0,21.000,21.146,,19.3261,,19.3245,,19.3253,33.4867,,33.4869,33.4888,,33.4904,33.4887,5.1880,,5.4032,5.3604,3.7639,,5.0444,4.0491,4.7048,226.312,235.7590,234.4611,164.190,387.9820,174.4378,204.4495,0.0342,,,0.0917,0.2761,,0.0000,0.000,23.7830,,23.7849,,0.6760,84.4505,,8.144,,1.8365E+03,,1.2095E+01,,19.3223,19.3208,0.0879,,98.130,71.193,,,,,,,,,,,,
CalCOFI,2007SR,014,15,2007_014d,15-Jul-2020 18:46:54,15-Jul-2020 10:46:54,30.84656,-121.58974,093.3 090.0,093.3,090.0,22.000,22.153,,19.3213,,19.3206,,19.3210,33.4915,,33.4917,33.4925,,33.4941,33.4929,5.1891,,5.4044,5.3616,3.7645,,5.0458,4.0504,4.7060,226.362,235.8112,234.5125,164.218,388.1043,174.5013,204.5069,0.0342,,,0.0917,0.2759,,0.0000,0.000,23.7879,,23.7889,,0.6762,84.4479,,8.145,,1.8396E+03,,1.1723E+01,,19.3173,19.3166,0.0920,,98.146,71.201,,,,,,,,,,,,
CalCOFI,2007SR,014,15,2007_014d,15-Jul-2020 18:46:55,15-Jul-2020 10:46:55,30.84656,-121.58973,093.3 090.0,093.3,090.0,23.000,23.160,,19.3132,,19.3126,,19.3129,33.4984,,33.4986,33.4995,,33.5011,33.4999,5.1896,,5.4049,5.3621,3.7688,,5.0561,4.0597,4.7109,226.382,235.8321,234.5331,164.401,388.1532,174.9160,204.7246,0.0345,,,0.0929,0.2759,,0.0000,0.000,23.7953,,23.7963,,0.6768,84.4342,,8.146,,1.8428E+03,,1.1050E+01,,19.3091,19.3085,0.0961,,98.145,71.274,,,,,,,,,,,,
CalCOFI,2007SR,014,15,2007_014d,15-Jul-2020 18:47:00,15-Jul-2020 10:47:00,30.84655,-121.58974,093.3 090.0,093.3,090.0,24.000,24.168,,19.3151,,19.3171,,19.3161,33.4971,,33.4973,33.4957,,33.4973,33.4973,5.1918,,5.4072,5.3643,3.7713,,5.0620,4.0651,4.7147,226.478,235.9323,234.6319,164.510,388.3880,175.1630,204.8975,0.0344,,,0.0925,0.2787,,0.0000,0.000,23.7938,,23.7923,,0.6765,84.4414,,8.146,,1.8484E+03,,1.0567E+01,,19.3108,19.3128,0.1016,,98.189,71.325,,,,,,,,,,,,
CalCOFI,2007SR,014,15,2007_014d,15-Jul-2020 18:47:02,15-Jul-2020 10:47:02,30.84654,-121.58974,093.3 090.0,093.3,090.0,25.000,25.175,,19.2950,,19.2873,,19.2912,33.5039,,33.5041,33.5061,,33.5077,33.5059,5.2016,,5.4175,5.3743,3.7759,,5.0730,4.0751,4.7247,226.904,236.3770,235.0702,164.711,389.4300,175.6185,205.3444,0.0342,,,0.0917,0.2800,,0.0000,0.000,23.8043,,23.8079,,0.6759,84.4534,,8.146,,1.8542E+03,,1.0284E+01,,19.2905,19.2828,0.1064,,98.342,71.378,,,,,,,,,,,,
CalCOFI,2007SR,014,15,2007_014d,15-Jul-2020 18:47:02,15-Jul-2020 10:47:02,30.84656,-121.58974,093.3 090.0,093.3,090.0,26.000,26.182,,19.2522,,19.2485,,19.2504,33.5138,,33.5140,33.5148,,33.5164,33.5152,5.2050,,5.4210,5.3777,3.7782,,5.0785,4.0800,4.7289,227.045,236.5242,235.2152,164.808,389.7748,175.8383,205.5268,0.0337,,,0.0896,0.2803,,0.0000,0.000,23.8228,,23.8245,,0.6743,84.4867,,8.148,,1.8602E+03,,9.8031E+00,,19.2475,19.2438,0.1105,,98.332,71.373,26,19.201,33.5093,5.407,235.98,0.113,0.032,0.0,0.00,0.05,0.22,1.44
CalCOFI,2007SR,014,15,2007_014d,15-Jul-2020 18:47:03,15-Jul-2020 10:47:03,30.84656,-121.58972,093.3 090.0,093.3,090.0,27.000,27.189,,19.2357,,19.2351,,19.2354,33.5209,,33.5211,33.5215,,33.5231,33.5221,5.2079,,5.4240,5.3807,3.7795,,5.0816,4.0829,4.7318,227.171,236.6557,235.3449,164.862,390.0830,175.9607,205.6528,0.0365,,0.0047,0.1012,0.2810,,0.0000,0.000,23.8324,,23.8330,,0.6743,84.4858,,8.149,,1.8637E+03,,9.3734E+00,,19.2309,19.2302,0.1146,,98.362,71.383,,,,,,,,,,,,
CalCOFI,2007SR,014,15,2007_014d,15-Jul-2020 18:47:08,15-Jul-2020 10:47:08,30.84655,-121.58973,093.3 090.0,093.3,090.0,28.000,28.196,,19.2578,,19.2599,,19.2589,33.5140,,33.5142,33.5142,,33.5158,33.5150,5.1990,,5.4147,5.3716,3.7820,,5.0876,4.0883,4.7300,226.787,236.2548,234.9498,164.973,389.1438,176.2122,205.5810,0.0339,,,0.0904,0.2861,,0.0000,0.052,23.8215,,23.8212,,0.6735,84.5023,,8.149,,1.8656E+03,,9.1207E+00,,19.2528,19.2549,0.1193,,98.231,71.460,,,,,,,,,,,,
CalCOFI,2007SR,014,15,2007_014d,15-Jul-2020 18:47:10,15-Jul-2020 10:47:10,30.84654,-121.58974,093.3 090.0,093.3,090.0,29.000,29.203,,19.2350,,19.2390,,19.2370,33.5195,,33.5197,33.5175,,33.5191,33.5194,5.2186,,5.4352,5.3916,3.7880,,5.1019,4.1013,4.7465,227.637,237.1422,235.8243,165.234,391.2228,176.8037,206.3140,0.0342,,,0.0917,0.2863,,0.0000,0.057,23.8316,,23.8291,,0.6743,84.4854,,8.149,,1.8674E+03,,8.9624E+00,,19.2298,19.2338,0.1235,,98.562,71.547,,,,,,,,,,,,
CalCOFI,2007SR,014,15,2007_014d,15-Jul-2020 18:47:11,15-Jul-2020 10:47:11,30.84656,-121.58972,093.3 090.0,093.3,090.0,30.000,30.210,,19.2002,,19.1991,,19.1997,33.5268,,33.5270,33.5273,,33.5289,33.5280,5.2222,,5.4390,5.3952,3.7901,,5.1069,4.1058,4.7505,227.793,237.3050,235.9848,165.321,391.6043,177.0009,206.4929,0.0353,,,0.0962,0.2856,,0.0000,0.038,23.8461,,23.8468,,0.6748,84.4750,,8.149,,1.8751E+03,,8.5691E+00,,19.1948,19.1937,0.1276,,98.571,71.537,,,,,,,,,,,,
CalCOFI,2007SR,014,15,2007_014d,15-Jul-2020 18:47:12,15-Jul-2020 10:47:12,30.84656,-121.58972,093.3 090.0,093.3,090.0,31.000,31.217,,19.1940,,19.1935,,19.1938,33.5272,,33.5274,33.5277,,33.5293,33.5284,5.2132,,5.4296,5.3861,3.7920,,5.1114,4.1099,4.7480,227.397,236.8916,235.5774,165.404,390.6358,177.1890,206.3832,0.0344,,,0.0925,0.2847,,0.0000,0.014,23.8480,,23.8485,,0.6742,84.4877,,8.149,,1.8818E+03,,8.2161E+00,,19.1884,19.1880,0.1316,,98.389,71.565,,,,,,,,,,,,
CalCOFI,2007SR,014,15,2007_014d,15-Jul-2020 18:47:15,15-Jul-2020 10:47:15,30.84656,-121.58972,093.3 090.0,093.3,090.0,32.000,32.224,,19.1969,,19.1988,,19.1979,33.5270,,33.5272,33.5273,,33.5289,33.5281,5.2136,,5.4300,5.3865,3.7921,,5.1117,4.1102,4.7484,227.416,236.9115,235.5969,165.410,390.6823,177.2026,206.3998,0.0352,,,0.0958,0.2814,,0.0000,0.000,23.8472,,23.8469,,0.6735,84.5022,,8.149,,1.8860E+03,,7.9128E+00,,19.1911,19.1930,0.1359,,98.402,71.575,,,,,,,,,,,,
CalCOFI,2007SR,014,15,2007_014d,15-Jul-2020 18:47:19,15-Jul-2020 10:47:19,30.84654,-121.58972,093.3 090.0,093.3,090.0,33.000,33.231,,19.2006,,19.2009,,19.2008,33.5264,,33.5266,33.5265,,33.5281,33.5274,5.2095,,5.4257,5.3823,3.7974,,5.1243,4.1216,4.7520,227.238,236.7256,235.4138,165.643,390.2469,177.7306,206.5722,0.0349,,,0.0946,0.2779,,0.0000,0.000,23.8458,,23.8458,,0.6732,84.5089,,8.149,,1.8858E+03,,7.8038E+00,,19.1947,19.1950,0.1404,,98.331,71.678,,,,,,,,,,,,
CalCOFI,2007SR,014,15,2007_014d,15-Jul-2020 18:47:20,15-Jul-2020 10:47:20,30.84655,-121.58972,093.3 090.0,093.3,090.0,34.000,34.238,,19.1900,,19.1891,,19.1896,33.5290,,33.5292,33.5298,,33.5314,33.5303,5.2102,,5.4264,5.3830,3.7968,,5.1229,4.1203,4.7517,227.268,236.7570,235.4447,165.616,390.3203,177.6694,206.5571,0.0362,,0.0012,0.1000,0.2780,,0.0000,0.000,23.8505,,23.8514,,0.6752,84.4690,,8.149,,1.8946E+03,,7.5837E+00,,19.1840,19.1831,0.1445,,98.327,71.652,,,,,,,,,,,,
CalCOFI,2007SR,014,15,2007_014d,15-Jul-2020 18:47:21,15-Jul-2020 10:47:21,30.84656,-121.58972,093.3 090.0,093.3,090.0,35.000,35.245,,19.1850,,19.1844,,19.1847,33.5288,,33.5290,33.5291,,33.5307,33.5299,5.2094,,5.4256,5.3822,3.7977,,5.1250,4.1223,4.7523,227.233,236.7204,235.4086,165.653,390.2347,177.7532,206.5809,0.0361,,,0.0996,0.2778,,0.0000,0.000,23.8517,,23.8521,,0.6737,84.4978,,8.149,,1.9020E+03,,7.2497E+00,,19.1787,19.1781,0.1486,,98.303,71.662,,,,,,,,,,,,
CalCOFI,2007SR,014,15,2007_014d,15-Jul-2020 18:47:22,15-Jul-2020 10:47:22,30.84656,-121.58972,093.3 090.0,093.3,090.0,36.000,36.252,,19.1783,,19.1778,,19.1781,33.5281,,33.5283,33.5285,,33.5301,33.5292,5.2133,,5.4297,5.3862,3.7987,,5.1274,4.1245,4.7554,227.403,236.8979,235.5836,165.696,390.6505,177.8507,206.7172,0.0354,,,0.0967,0.2777,,0.0000,0.000,23.8529,,23.8534,,0.6719,84.5374,,8.149,,1.9072E+03,,6.9595E+00,,19.1719,19.1714,0.1526,,98.363,71.671,,,,,,,,,,,,
CalCOFI,2007SR,014,15,2007_014d,15-Jul-2020 18:47:25,15-Jul-2020 10:47:25,30.84656,-121.58972,093.3 090.0,093.3,090.0,37.000,37.259,,19.1797,,19.1821,,19.1809,33.5283,,33.5285,33.5290,,33.5306,33.5296,5.2102,,5.4264,5.3830,3.8004,,5.1315,4.1281,4.7556,227.269,236.7580,235.4457,165.770,390.3227,178.0184,206.7321,0.0361,,,0.0996,0.2813,,0.0000,0.000,23.8528,,23.8527,,0.6718,84.5396,,8.149,,1.9073E+03,,6.7608E+00,,19.1730,19.1755,0.1568,,98.308,71.709,,,,,,,,,,,,
CalCOFI,2007SR,014,15,2007_014d,15-Jul-2020 18:47:29,15-Jul-2020 10:47:29,30.84654,-121.58972,093.3 090.0,093.3,090.0,38.000,38.267,,19.1797,,19.1794,,19.1796,33.5280,,33.5282,33.5284,,33.5300,33.5291,5.2077,,5.4238,5.3805,3.8032,,5.1382,4.1342,4.7574,227.156,236.6400,235.3294,165.894,390.0463,178.2994,206.8144,0.0355,,,0.0971,0.2875,,0.0000,0.090,23.8526,,23.8529,,0.6719,84.5370,,8.149,,1.9124E+03,,6.6052E+00,,19.1729,19.1727,0.1610,,98.259,71.759,,,,,,,,,,,,
CalCOFI,2007SR,014,15,2007_014d,15-Jul-2020 18:47:29,15-Jul-2020 10:47:29,30.84655,-121.58972,093.3 090.0,093.3,090.0,39.000,39.274,,19.1708,,19.1700,,19.1704,33.5281,,33.5283,33.5287,,33.5303,33.5293,5.2116,,5.4279,5.3845,3.8044,,5.1410,4.1368,4.7607,227.326,236.8175,235.5043,165.946,390.4621,178.4172,206.9608,0.0348,,,0.0942,0.2899,,0.0000,0.155,23.8550,,23.8557,,0.6710,84.5554,,8.149,,1.9175E+03,,6.3706E+00,,19.1638,19.1630,0.1651,,98.317,71.770,,,,,,,,,,,,
CalCOFI,2007SR,014,15,2007_014d,15-Jul-2020 18:47:30,15-Jul-2020 10:47:30,30.84656,-121.58972,093.3 090.0,093.3,090.0,40.000,40.281,,19.1677,,19.1672,,19.1675,33.5281,,33.5283,33.5286,,33.5302,33.5293,5.2128,,5.4292,5.3857,3.8042,,5.1406,4.1364,4.7611,227.380,236.8739,235.5599,165.938,390.5942,178.3991,206.9795,0.0358,,,0.0983,0.2918,,0.0000,0.206,23.8558,,23.8563,,0.6716,84.5429,,8.149,,1.9220E+03,,6.1730E+00,,19.1606,19.1601,0.1692,,98.335,71.762,,,,,,,,,,,,
CalCOFI,2007SR,014,15,2007_014d,15-Jul-2020 18:47:32,15-Jul-2020 10:47:32,30.84656,-121.58972,093.3 090.0,093.3,090.0,41.000,41.288,,19.1634,,19.1635,,19.1635,33.5273,,33.5275,33.5282,,33.5298,33.5287,5.2116,,5.4279,5.3845,3.8053,,5.1432,4.1387,4.7616,227.327,236.8186,235.5054,165.985,390.4646,178.5056,207.0055,0.0367,,0.0070,0.1020,0.2935,,0.0000,0.252,23.8564,,23.8570,,0.6715,84.5467,,8.149,,1.9279E+03,,5.9726E+00,,19.1561,19.1562,0.1733,,98.303,71.778,,,,,,,,,,,,
CalCOFI,2007SR,014,15,2007_014d,15-Jul-2020 18:47:36,15-Jul-2020 10:47:36,30.84655,-121.58972,093.3 090.0,093.3,090.0,42.000,42.295,,19.1671,,19.1678,,19.1675,33.5280,,33.5282,33.5287,,33.5303,33.5293,5.2046,,5.4206,5.3773,3.8059,,5.1446,4.1400,4.7587,227.020,236.4981,235.1895,166.009,389.7137,178.5600,206.8748,0.0372,,0.0129,0.1041,0.2949,,0.0000,0.290,23.8560,,23.8563,,0.6705,84.5677,,8.149,,1.9382E+03,,5.8440E+00,,19.1596,19.1603,0.1774,,98.178,71.794,42,18.983,33.5119,,237.19,0.152,0.042,0.0,0.00,0.06,0.23,1.45
CalCOFI,2007SR,014,15,2007_014d,15-Jul-2020 18:47:38,15-Jul-2020 10:47:38,30.84655,-121.58972,093.3 090.0,093.3,090.0,43.000,43.302,,19.1588,,19.1577,,19.1583,33.5262,,33.5264,33.5263,,33.5279,33.5272,5.2074,,5.4235,5.3802,3.8070,,5.1473,4.1424,4.7613,227.142,236.6254,235.3150,166.060,390.0121,178.6756,206.9953,0.0378,,0.0199,0.1066,0.2943,,0.0000,0.274,23.8567,,23.8571,,0.6724,84.5256,,8.149,,1.9565E+03,,5.7722E+00,,19.1511,19.1500,0.1814,,98.214,71.802,,,,,,,,,,,,
CalCOFI,2007SR,014,15,2007_014d,15-Jul-2020 18:47:39,15-Jul-2020 10:47:39,30.84656,-121.58972,093.3 090.0,093.3,090.0,44.000,44.309,,19.1467,,19.1446,,19.1457,33.5242,,33.5244,33.5246,,33.5262,33.5253,5.2112,,5.4275,5.3841,3.8085,,5.1508,4.1457,4.7649,227.308,236.7987,235.4858,166.124,390.4181,178.8206,207.1532,0.0391,,0.0352,0.1119,0.2936,,0.0000,0.255,23.8583,,23.8592,,0.6744,84.4845,,8.149,,1.9732E+03,,5.5881E+00,,19.1389,19.1368,0.1855,,98.263,71.811,,,,,,,,,,,,
CalCOFI,2007SR,014,15,2007_014d,15-Jul-2020 18:47:40,15-Jul-2020 10:47:40,30.84656,-121.58972,093.3 090.0,093.3,090.0,45.000,45.316,,19.1420,,19.1414,,19.1417,33.5240,,33.5242,33.5244,,33.5260,33.5251,5.2110,,5.4273,5.3838,3.8092,,5.1525,4.1472,4.7655,227.300,236.7904,235.4776,166.156,390.3985,178.8931,207.1854,0.0395,,0.0399,0.1135,0.2930,,0.0000,0.239,23.8594,,23.8599,,0.6747,84.4787,,8.149,,1.9830E+03,,5.3967E+00,,19.1339,19.1333,0.1896,,98.251,71.820,,,,,,,,,,,,
CalCOFI,2007SR,014,15,2007_014d,15-Jul-2020 18:47:41,15-Jul-2020 10:47:41,30.84656,-121.58972,093.3 090.0,093.3,090.0,46.000,46.324,,19.1357,,19.1353,,19.1355,33.5233,,33.5235,33.5239,,33.5255,33.5245,5.2130,,5.4294,5.3859,3.8102,,5.1549,4.1494,4.7677,227.388,236.8822,235.5681,166.196,390.6138,178.9838,207.2760,0.0392,,0.0364,0.1123,0.2922,,0.0000,0.217,23.8606,,23.8611,,0.6749,84.4741,,8.149,,1.9912E+03,,5.2154E+00,,19.1275,19.1271,0.1937,,98.277,71.830,,,,,,,,,,,,
CalCOFI,2007SR,014,15,2007_014d,15-Jul-2020 18:47:46,15-Jul-2020 10:47:46,30.84654,-121.58972,093.3 090.0,093.3,090.0,47.000,47.331,,19.1395,,19.1413,,19.1404,33.5240,,33.5242,33.5252,,33.5268,33.5255,5.2192,,5.4358,5.3922,3.8172,,5.1716,4.1645,4.7784,227.658,237.1641,235.8459,166.502,391.2742,179.6772,207.7616,0.0396,,0.0411,0.1139,0.2913,,0.0000,0.193,23.8602,,23.8606,,0.6738,84.4954,,8.149,,2.0470E+03,,5.2495E+00,,19.1311,19.1329,0.1996,,98.401,71.970,,,,,,,,,,,,
CalCOFI,2007SR,014,15,2007_014d,15-Jul-2020 18:47:48,15-Jul-2020 10:47:48,30.84655,-121.58972,093.3 090.0,093.3,090.0,48.000,48.338,,19.1131,,19.1095,,19.1113,33.5187,,33.5189,33.5169,,33.5185,33.5187,5.2577,,5.4761,5.4314,3.8265,,5.1938,4.1847,4.8081,229.338,238.9178,237.5744,166.906,395.3832,180.5928,209.0836,0.0384,,0.0270,0.1090,0.2916,,0.0000,0.201,23.8629,,23.8624,,0.6752,84.4687,,8.149,,2.0521E+03,,5.1052E+00,,19.1045,19.1009,0.2041,,99.075,72.099,,,,,,,,,,,,
CalCOFI,2007SR,014,15,2007_014d,15-Jul-2020 18:47:49,15-Jul-2020 10:47:49,30.84656,-121.58972,093.3 090.0,093.3,090.0,49.000,49.345,,18.9566,,18.9354,,18.9460,33.5069,,33.5071,33.5016,,33.5032,33.5052,5.3262,,5.5476,5.5011,3.8395,,5.2248,4.2128,4.8570,232.317,242.0276,240.6393,167.471,402.6694,181.8732,211.2563,0.0410,,0.0575,0.1196,0.2917,,0.0000,0.203,23.8935,,23.8947,,0.6783,84.4013,,8.150,,2.0553E+03,,4.8870E+00,,18.9480,18.9267,0.2082,,100.065,72.104,,,,,,,,,,,,